GW5867 Weather Reports


time (UTC)temp
F
wind
direction
speed
knots
gust
knots
rain 1hr
in
rain 24hr
in
rain mn
in
humidity
%
barometer
mb
20260506202011 57 219 6.1 9.6 0.04 0.23 0.23 92 1006.2
20260506201526 57 209 6.1 13.0 0.05 0.23 0.23 92 1006.2
20260506201007 57 214 5.2 13.0 0.05 0.22 0.22 92 1006.4
20260506200507 57 209 6.1 12.2 0.04 0.21 0.21 92 1006.3
20260506200026 57 202 6.1 13.0 0.05 0.21 0.21 92 1006.4
20260506195506 57 234 7.0 15.6 0.05 0.21 0.21 91 1006.5
20260506195010 57 248 8.7 15.6 0.05 0.20 0.20 91 1006.5
20260506194526 57 186 5.2 15.6 0.06 0.20 0.20 91 1006.6
20260506194008 57 200 6.1 19.1 0.06 0.20 0.20 91 1006.6
20260506193512 57 182 8.7 18.2 0.06 0.19 0.19 91 1006.5
20260506193028 57 209 7.0 13.9 0.06 0.19 0.19 91 1006.6
20260506192509 57 184 6.1 13.0 0.07 0.19 0.19 91 1006.7
20260506192014 57 213 5.2 13.0 0.07 0.19 0.19 91 1006.7
20260506191529 57 194 7.8 12.2 0.06 0.18 0.18 91 1006.7
20260506191010 57 203 5.2 15.6 0.06 0.17 0.17 91 1006.8
20260506190511 57 232 8.7 15.6 0.06 0.17 0.17 91 1006.7
20260506190034 58 199 4.3 13.9 0.06 0.16 0.16 91 1006.7
20260506185505 58 203 3.5 11.3 0.07 0.16 0.16 91 1006.7
20260506185006 58 209 5.2 11.3 0.06 0.15 0.15 91 1006.8
20260506184525 58 188 7.8 15.6 0.05 0.14 0.14 91 1006.9
20260506184006 58 232 5.2 15.6 0.05 0.14 0.14 91 1007.0
20260506183510 58 215 6.1 12.2 0.04 0.13 0.13 91 1007.1
20260506183025 58 213 5.2 11.3 0.04 0.13 0.13 91 1007.1
20260506182508 58 170 5.2 11.3 0.03 0.12 0.12 90 1007.2
20260506182015 58 178 6.1 9.6 0.04 0.12 0.12 90 1007.3
20260506181526 58 167 3.5 12.2 0.04 0.12 0.12 91 1007.3
20260506181003 58 194 6.1 12.2 0.03 0.11 0.11 91 1007.3
20260506180506 58 211 5.2 8.7 0.04 0.11 0.11 90 1007.4
20260506180018 58 218 2.6 7.8 0.04 0.10 0.10 90 1007.3
20260506175507 59 209 4.3 7.8 0.04 0.09 0.09 90 1007.4
20260506175008 59 199 2.6 9.6 0.05 0.09 0.09 90 1007.3
20260506174522 59 211 4.3 11.3 0.06 0.09 0.09 90 1007.3
20260506174010 59 187 5.2 13.0 0.07 0.09 0.09 90 1007.3
20260506173506 59 150 4.3 13.0 0.08 0.09 0.09 90 1007.3
20260506173006 59 205 3.5 13.0 0.08 0.09 0.09 89 1007.3
20260506172502 59 184 4.3 13.0 0.09 0.09 0.09 89 1007.3
20260506172003 59 142 5.2 11.3 0.08 0.08 0.08 89 1007.3
20260506171515 59 211 5.2 10.4 0.08 0.08 0.08 89 1007.7
20260506171007 59 209 5.2 7.0 0.08 0.08 0.08 88 1007.7
20260506170511 59 142 3.5 7.0 0.07 0.07 0.07 88 1007.7
20260506170021 59 192 3.5 7.0 0.06 0.06 0.06 87 1008.1
20260506165510 60 190 2.6 10.4 0.05 0.05 0.05 86 1008.2
20260506165006 60 180 3.5 12.2 0.04 0.04 0.04 85 1008.7
20260506164520 60 174 4.3 12.2 0.03 0.03 0.03 85 1008.7
20260506164009 60 184 5.2 10.4 0.02 0.02 0.02 84 1008.7
20260506163507 61 239 5.2 8.7 0.01 0.01 0.01 84 1008.7
20260506163040 61 198 3.5 8.7 0.01 0.01 0.01 83 1008.8
20260506162507 61 212 2.6 8.7 0.00 0.00 0.00 82 1008.6
20260506162014 61 209 4.3 11.3 0.00 0.00 0.00 81 1008.5
20260506161512 62 193 5.2 11.3 0.00 0.00 0.00 81 1008.6
20260506161002 62 189 7.0 11.3 0.00 0.00 0.00 80 1008.6
20260506160506 62 211 4.3 16.5 0.00 0.00 0.00 78 1008.7
20260506160015 62 197 6.1 16.5 0.00 0.00 0.00 78 1008.7
20260506155504 62 210 9.6 16.5 0.00 0.00 0.00 77 1008.8
20260506155006 62 211 5.2 15.6 0.00 0.00 0.00 77 1008.8
20260506154530 62 207 7.0 15.6 0.00 0.00 0.00 77 1009.0
20260506154010 62 182 7.0 15.6 0.00 0.00 0.00 77 1009.1
20260506153512 62 196 7.8 15.6 0.00 0.00 0.00 77 1009.1
20260506153027 62 238 6.1 11.3 0.00 0.00 0.00 77 1009.1
20260506152510 62 239 7.0 11.3 0.00 0.00 0.00 77 1009.1
20260506152014 62 180 6.1 14.8 0.00 0.00 0.00 77 1009.2
20260506151534 62 203 8.7 14.8 0.00 0.00 0.00 77 1009.1
20260506151008 62 169 7.8 12.2 0.00 0.00 0.00 78 1009.1
20260506150503 61 228 6.1 11.3 0.00 0.00 0.00 78 1009.3
20260506150010 61 189 4.3 18.2 0.00 0.00 0.00 78 1009.3
20260506145508 61 255 9.6 18.2 0.00 0.00 0.00 78 1009.4
20260506145005 61 213 7.8 15.6 0.00 0.00 0.00 78 1009.3
20260506144517 61 251 6.1 15.6 0.00 0.00 0.00 79 1009.4
20260506144004 61 204 4.3 13.9 0.00 0.00 0.00 79 1009.5
20260506143507 61 207 7.8 14.8 0.00 0.00 0.00 79 1009.5
20260506143022 61 217 5.2 14.8 0.00 0.00 0.00 79 1009.5
20260506142508 61 199 4.3 14.8 0.00 0.00 0.00 79 1009.4
20260506142010 60 198 7.0 15.6 0.00 0.00 0.00 80 1009.4
20260506141526 60 201 5.2 15.6 0.00 0.00 0.00 80 1009.3
20260506141016 60 228 7.8 14.8 0.00 0.00 0.00 79 1009.2
20260506140508 60 200 5.2 13.9 0.00 0.00 0.00 80 1009.3
20260506140033 60 197 7.8 13.9 0.00 0.00 0.00 80 1009.4
20260506135514 60 183 7.0 12.2 0.00 0.00 0.00 80 1009.3
20260506135004 60 219 6.1 12.2 0.00 0.00 0.00 80 1009.1
20260506134516 60 200 5.2 13.9 0.00 0.00 0.00 80 1009.2
20260506134009 60 198 4.3 13.9 0.00 0.00 0.00 80 1009.2
20260506133504 60 156 5.2 9.6 0.00 0.00 0.00 79 1009.1
20260506133022 60 188 4.3 10.4 0.00 0.00 0.00 80 1008.9
20260506132513 60 209 7.0 9.6 0.00 0.00 0.00 80 1008.9
20260506132007 60 189 5.2 12.2 0.00 0.00 0.00 80 1009.0
20260506131527 60 236 4.3 14.8 0.00 0.00 0.00 81 1009.0
20260506131010 60 196 7.8 14.8 0.00 0.00 0.00 80 1009.1
20260506130510 60 225 5.2 13.0 0.00 0.00 0.00 81 1009.1
20260506130026 60 207 7.0 13.0 0.00 0.00 0.00 81 1009.3
20260506125510 60 225 5.2 12.2 0.00 0.00 0.00 81 1009.4
20260506125011 60 201 5.2 12.2 0.00 0.00 0.00 81 1009.3
20260506124528 59 179 5.2 10.4 0.00 0.00 0.00 81 1009.4
20260506124006 59 185 4.3 10.4 0.00 0.00 0.00 81 1009.3
20260506123505 59 190 5.2 10.4 0.00 0.00 0.00 81 1009.3
20260506123019 59 216 2.6 10.4 0.00 0.00 0.00 82 1009.3
20260506122506 59 215 5.2 10.4 0.00 0.00 0.00 82 1009.5
20260506122008 59 199 6.1 12.2 0.00 0.00 0.00 82 1009.5
20260506121523 59 184 5.2 13.9 0.00 0.00 0.00 83 1009.5
20260506121003 59 194 7.8 13.9 0.00 0.00 0.00 83 1009.6
20260506120504 58 150 3.5 13.0 0.00 0.00 0.00 84 1009.5
20260506120012 58 185 6.1 15.6 0.00 0.00 0.00 84 1009.5
20260506115504 58 198 7.0 15.6 0.00 0.00 0.00 85 1009.7
20260506115002 58 205 8.7 13.0 0.00 0.00 0.00 85 1009.6
20260506114514 57 180 5.2 13.0 0.00 0.00 0.00 85 1009.4
20260506114005 57 169 6.1 13.0 0.00 0.00 0.00 86 1009.5
20260506113504 57 207 5.2 12.2 0.00 0.00 0.00 86 1009.7
20260506113020 57 176 5.2 13.9 0.00 0.00 0.00 86 1009.7
20260506112504 57 207 5.2 13.9 0.00 0.00 0.00 86 1009.7
20260506112006 57 198 5.2 9.6 0.00 0.00 0.00 87 1009.7
20260506111527 56 221 4.3 13.0 0.00 0.00 0.00 87 1009.8
20260506111003 56 179 6.1 13.0 0.00 0.00 0.00 87 1009.8
20260506110503 56 186 5.2 12.2 0.00 0.00 0.00 87 1009.8
20260506110010 56 227 3.5 9.6 0.00 0.00 0.00 87 1009.6
20260506105503 56 225 3.5 9.6 0.00 0.00 0.00 86 1009.6
20260506105006 56 157 5.2 9.6 0.00 0.00 0.00 87 1009.6
20260506104510 56 149 5.2 9.6 0.00 0.00 0.00 87 1009.7
20260506104007 56 192 4.3 9.6 0.00 0.00 0.00 87 1009.9
20260506103504 56 180 4.3 9.6 0.00 0.00 0.00 86 1009.8
20260506103015 56 167 6.1 12.2 0.00 0.00 0.00 86 1009.5
20260506102507 56 203 5.2 12.2 0.00 0.00 0.00 86 1009.6
20260506102008 56 175 4.3 9.6 0.00 0.00 0.00 86 1009.7
20260506101519 56 171 4.3 9.6 0.00 0.00 0.00 85 1009.7
20260506101008 56 198 5.2 9.6 0.00 0.00 0.00 85 1009.8
20260506100507 56 200 3.5 8.7 0.00 0.00 0.00 85 1009.5
20260506100005 56 222 4.3 9.6 0.00 0.00 0.00 85 1009.5
20260506095503 56 183 5.2 9.6 0.00 0.00 0.00 85 1009.4
20260506095004 56 190 5.2 7.8 0.00 0.00 0.00 84 1009.2
20260506094526 56 176 4.3 10.4 0.00 0.00 0.00 84 1009.1
20260506094005 56 160 2.6 10.4 0.00 0.00 0.00 84 1009.3
20260506093503 56 217 4.3 8.7 0.00 0.00 0.00 84 1009.1
20260506093013 56 209 5.2 7.8 0.00 0.00 0.00 83 1009.3
20260506092503 56 198 4.3 7.8 0.00 0.00 0.00 83 1009.2
20260506092006 56 228 3.5 7.8 0.00 0.00 0.00 83 1009.2
20260506091518 56 163 4.3 7.8 0.00 0.00 0.00 82 1009.3
20260506091010 56 184 2.6 8.7 0.00 0.00 0.00 82 1009.3
20260506090504 56 184 5.2 10.4 0.00 0.00 0.00 82 1009.3
20260506090024 56 191 3.5 10.4 0.00 0.00 0.00 81 1009.3
20260506085507 56 168 4.3 8.7 0.00 0.00 0.00 81 1009.4
20260506085008 56 196 6.1 8.7 0.00 0.00 0.00 81 1009.5
20260506084505 57 226 3.5 9.6 0.00 0.00 0.00 80 1009.5
20260506084003 57 173 5.2 9.6 0.00 0.00 0.00 80 1009.5
20260506083504 57 186 5.2 8.7 0.00 0.00 0.00 80 1009.5
20260506083016 57 193 4.3 7.8 0.00 0.00 0.00 79 1009.5
20260506082505 57 199 5.2 7.8 0.00 0.00 0.00 79 1009.4
20260506082004 57 173 3.5 7.0 0.00 0.00 0.00 78 1009.5
20260506081516 57 176 3.5 7.0 0.00 0.00 0.00 78 1009.5
20260506081012 57 225 3.5 9.6 0.00 0.00 0.00 77 1009.4
20260506080507 57 205 2.6 9.6 0.00 0.00 0.00 76 1009.4
20260506073506 59 200 1.7 5.2 0.00 0.00 0.00 73 1009.4
20260506073007 59 213 1.7 6.1 0.00 0.00 0.00 73 1009.4
20260506072504 59 196 3.5 6.1 0.00 0.00 0.00 72 1009.4
20260506072003 59 192 1.7 6.1 0.00 0.00 0.00 72 1009.4
20260506071510 59 183 3.5 6.1 0.00 0.00 0.00 71 1009.5
20260506071004 60 199 0.9 5.2 0.00 0.00 0.00 71 1009.5
20260506070504 60 203 3.5 5.2 0.00 0.00 0.00 71 1009.5
20260506062511 61 188 3.5 11.3 0.00 0.00 0.00 68 1009.6
20260506062002 61 210 4.3 13.9 0.00 0.00 0.00 68 1009.6
20260506061511 61 198 6.1 13.9 0.00 0.00 0.00 68 1009.6
20260506061004 61 202 8.7 13.9 0.00 0.00 0.00 68 1009.6
20260506060506 62 192 5.2 12.2 0.00 0.00 0.00 68 1009.6
20260506051003 63 169 6.1 16.5 0.00 0.00 0.00 65 1010.0
20260506050504 63 196 7.0 14.8 0.00 0.00 0.00 65 1010.0
20260506045004 63 192 5.2 13.0 0.00 0.00 0.00 65 1010.0
20260506044519 62 178 7.8 13.9 0.00 0.00 0.00 65 1010.0
20260506044005 62 171 7.8 13.9 0.00 0.00 0.00 65 1010.1
20260506043506 62 198 5.2 8.7 0.00 0.00 0.00 65 1010.1
20260506043024 62 188 5.2 11.3 0.00 0.00 0.00 65 1010.1
20260506042508 62 190 5.2 11.3 0.00 0.00 0.00 65 1010.1
20260506042008 62 174 6.1 11.3 0.00 0.00 0.00 65 1010.1
20260506041536 62 190 4.3 10.4 0.00 0.00 0.00 65 1010.1
20260506041008 62 166 3.5 10.4 0.00 0.00 0.00 65 1010.1
20260506040512 62 214 6.1 10.4 0.00 0.00 0.00 64 1010.0
20260506040029 62 232 4.3 11.3 0.00 0.00 0.00 64 1010.1
20260506035506 63 247 7.0 11.3 0.00 0.00 0.00 64 1010.1
20260506035004 63 193 3.5 13.0 0.00 0.00 0.00 64 1010.1
20260506034525 63 191 7.0 13.0 0.00 0.00 0.00 63 1010.1
20260506034006 63 200 7.0 12.2 0.00 0.00 0.00 63 1010.2
20260506033504 63 153 7.0 11.3 0.00 0.00 0.00 63 1010.2
20260506033019 63 179 5.2 13.0 0.00 0.00 0.00 63 1010.2
20260506032507 63 196 4.3 13.0 0.00 0.00 0.00 63 1010.3
20260506032008 63 223 6.1 10.4 0.00 0.00 0.00 63 1010.2
20260506031525 63 194 3.5 7.8 0.00 0.00 0.00 63 1010.3
20260506031009 63 198 2.6 10.4 0.00 0.00 0.00 63 1010.3
20260506030514 63 173 5.2 14.8 0.00 0.00 0.00 62 1010.3
20260506030028 63 209 5.2 14.8 0.00 0.00 0.00 62 1010.3
20260506025516 64 191 5.2 11.3 0.00 0.00 0.00 61 1010.3
20260506025010 64 227 5.2 11.3 0.00 0.00 0.00 60 1010.2
20260506024513 64 203 6.1 12.2 0.00 0.00 0.00 60 1010.3
20260506024008 64 200 7.0 12.2 0.00 0.00 0.00 59 1010.2
20260506023512 64 189 5.2 9.6 0.00 0.00 0.00 60 1010.2
20260506023018 64 213 7.0 8.7 0.00 0.00 0.00 59 1010.0
20260506022511 64 202 6.1 13.0 0.00 0.00 0.00 59 1009.9
20260506022004 64 198 5.2 13.0 0.00 0.00 0.00 60 1010.0
20260506021525 64 184 5.2 9.6 0.00 0.00 0.00 59 1009.9
20260506021010 64 175 2.6 7.8 0.00 0.00 0.00 61 1009.7
20260506020511 64 202 2.6 6.1 0.00 0.00 0.00 60 1009.8
20260506020025 64 217 3.5 7.8 0.00 0.00 0.00 61 1009.8
20260506015507 64 178 3.5 7.8 0.00 0.00 0.00 60 1009.8
20260506015009 64 172 4.3 8.7 0.00 0.00 0.00 60 1009.8
20260506014525 64 190 2.6 8.7 0.00 0.00 0.00 61 1009.9
20260506014010 64 195 4.3 7.8 0.00 0.00 0.00 60 1009.9
20260506013511 64 188 2.6 9.6 0.00 0.00 0.00 60 1009.8
20260506013034 64 191 4.3 9.6 0.00 0.00 0.00 60 1009.8
20260506012507 64 179 2.6 7.0 0.00 0.00 0.00 61 1009.8
20260506012010 64 209 2.6 7.0 0.00 0.00 0.00 61 1009.8
20260506011526 64 201 3.5 6.1 0.00 0.00 0.00 61 1009.8
20260506011008 64 200 3.5 7.0 0.00 0.00 0.00 61 1009.7
20260506010506 64 159 4.3 7.0 0.00 0.00 0.00 61 1009.6
20260506010028 64 189 3.5 7.0 0.00 0.00 0.00 60 1009.6
20260506005510 65 205 2.6 6.1 0.00 0.00 0.00 61 1009.5
20260506005010 65 188 3.5 7.8 0.00 0.00 0.00 60 1009.5
20260506004527 65 208 4.3 7.8 0.00 0.00 0.00 60 1009.4
20260506004012 65 186 3.5 7.8 0.00 0.00 0.00 59 1009.4
20260506003512 65 188 3.5 8.7 0.00 0.00 0.00 59 1009.3
20260506003027 66 180 3.5 8.7 0.00 0.00 0.00 58 1009.3
20260506002510 66 186 3.5 10.4 0.00 0.00 0.00 58 1009.2
20260506002007 66 219 4.3 10.4 0.00 0.00 0.00 57 1009.0
20260506001519 66 208 4.3 10.4 0.00 0.00 0.00 57 1008.9
20260506001007 67 211 4.3 10.4 0.00 0.00 0.00 56 1008.9
20260506000506 67 185 4.3 10.4 0.00 0.00 0.00 56 1008.8
20260506000025 68 200 5.2 10.4 0.00 0.00 0.00 55 1008.8
20260505235506 68 175 7.0 13.0 0.00 0.00 0.00 54 1008.7
20260505235012 69 233 5.2 13.0 0.00 0.00 0.00 53 1008.6
20260505234526 69 174 4.3 9.6 0.00 0.00 0.00 53 1008.5
20260505234008 69 200 4.3 10.4 0.00 0.00 0.00 52 1008.5
20260505233511 70 209 6.1 10.4 0.00 0.00 0.00 51 1008.3
20260505233028 70 219 3.5 11.3 0.00 0.00 0.00 50 1008.2
20260505232514 70 188 5.2 11.3 0.00 0.00 0.00 49 1008.2
20260505232011 70 217 7.0 14.8 0.00 0.00 0.00 49 1008.1
20260505231529 70 222 8.7 16.5 0.00 0.00 0.00 49 1008.1
20260505231008 71 204 7.0 16.5 0.00 0.00 0.00 48 1008.0
20260505230509 71 190 6.1 14.8 0.00 0.00 0.00 48 1007.9
20260505230020 71 250 7.0 13.9 0.00 0.00 0.00 47 1007.9
20260505225509 71 198 6.1 13.9 0.00 0.00 0.00 48 1007.8
20260505225008 71 234 9.6 17.4 0.00 0.00 0.00 47 1007.8
20260505224524 71 198 10.4 17.4 0.00 0.00 0.00 47 1007.8
20260505224007 71 205 7.8 15.6 0.00 0.00 0.00 47 1007.7
20260505223510 72 192 8.7 16.5 0.00 0.00 0.00 47 1007.7
20260505223037 72 168 8.7 16.5 0.00 0.00 0.00 47 1007.5
20260505222515 72 199 7.8 17.4 0.00 0.00 0.00 47 1007.5
20260505222003 72 223 7.0 17.4 0.00 0.00 0.00 46 1007.5
20260505221525 73 174 8.7 17.4 0.00 0.00 0.00 46 1007.5
20260505221005 73 242 9.6 17.4 0.00 0.00 0.00 46 1007.3
20260505220506 73 176 7.8 20.0 0.00 0.00 0.00 46 1007.4
20260505220029 73 198 9.6 23.5 0.00 0.00 0.00 46 1007.3
20260505215506 73 206 11.3 23.5 0.00 0.00 0.00 46 1007.3
20260505215004 73 195 9.6 22.6 0.00 0.00 0.00 45 1007.3
20260505214533 74 179 11.3 21.7 0.00 0.00 0.00 45 1007.3
20260505214001 74 223 8.7 19.1 0.00 0.00 0.00 45 1007.2
20260505213502 74 177 8.7 20.0 0.00 0.00 0.00 46 1007.2
20260505213007 74 190 9.6 20.9 0.00 0.00 0.00 45 1007.2
20260505212503 74 234 12.2 20.9 0.00 0.00 0.00 43 1007.3
20260505212008 75 208 10.4 22.6 0.00 0.00 0.00 44 1007.3
20260505211512 75 174 12.2 22.6 0.00 0.00 0.00 43 1007.3
20260505211003 75 161 11.3 19.1 0.00 0.00 0.00 42 1007.3
20260505210503 75 227 11.3 23.5 0.00 0.00 0.00 43 1007.2
20260505210016 75 218 8.7 23.5 0.00 0.00 0.00 44 1007.2
20260505205506 75 236 8.7 20.0 0.00 0.00 0.00 43 1007.2
20260505205008 75 219 12.2 18.2 0.00 0.00 0.00 44 1007.3
20260505204526 75 199 4.3 18.2 0.00 0.00 0.00 45 1007.3
20260505204008 75 203 11.3 21.7 0.00 0.00 0.00 43 1007.2
20260505203507 75 129 8.7 21.7 0.00 0.00 0.00 43 1007.3
20260505203007 75 190 12.2 20.9 0.00 0.00 0.00 43 1007.3
20260505202503 75 210 11.3 21.7 0.00 0.00 0.00 43 1007.2